Theta_e
311 311 311 310 309 309 308 307 307 306 306 306 304 304 304 305 304 305 305 305 305 305 304 302 301 301 301 301 300 299 298 297 295 293 292 292 291 289 290 288 287 288
310 310 308 309 308 307 308 308 307 307 306 306 306 305 305 305 305 305 304 304 304 304 304 302 301 301 300 300 299 298 296 296 294 293 292 291 291 290 290 289 288 288
309 309 309 308 308 307 307 308 307 307 306 306 306 305 305 304 304 304 305 305 304 304 304 302 301 300 299 299 298 297 296 295 294 292 291 291 290 290 290 289 289 288
308 308 308 308 308 307 307 306 306 306 306 305 304 304 304 303 304 304 304 301 303 303 303 302 301 300 298 298 297 296 296 295 295 291 291 290 289 290 289 289 288 288
307 307 307 307 307 306 306 305 305 305 304 304 304 302 301 302 303 303 303 302 303 302 302 301 300 298 297 296 296 295 294 295 293 292 291 289 289 289 289 289 288 287
307 307 306 306 305 305 305 305 304 303 302 301 302 300 301 301 302 302 302 301 301 301 299 298 298 297 295 294 294 295 294 294 291 291 290 289 288 288 288 288 287 287
305 306 305 305 304 304 304 304 304 302 302 302 299 298 299 298 299 300 299 300 299 298 297 296 295 295 294 293 293 293 292 292 289 289 289 288 288 286 286 287 287 287
304 305 304 304 303 303 303 303 302 301 300 298 297 297 296 297 297 297 296 296 296 295 295 294 294 293 292 292 292 291 290 290 288 288 288 288 287 287 286 287 287 287
303 302 303 302 301 301 302 302 301 299 298 297 296 295 294 295 296 295 294 293 294 294 293 293 293 293 292 291 292 291 290 289 288 288 288 287 287 287 286 286 286 287
302 301 300 300 300 300 300 300 299 297 295 296 295 294 293 293 293 293 292 292 292 292 292 293 292 292 291 291 291 290 289 288 287 288 288 288 288 287 286 286 287 286
302 300 299 299 299 299 299 298 297 296 294 294 294 292 292 291 291 292 292 292 292 292 291 291 291 291 290 290 290 289 289 288 287 287 287 287 287 287 287 286 286 287
302 300 299 299 299 299 298 297 295 294 293 293 292 291 291 291 290 291 291 291 292 291 291 291 290 290 290 289 289 288 288 288 287 287 287 286 286 286 285 286 286 286
302 301 300 299 298 298 297 296 294 293 292 292 291 291 290 290 290 290 290 291 291 290 290 290 289 289 289 289 288 288 288 287 286 286 286 286 285 285 285 285 286 286
302 301 300 299 298 297 295 294 293 292 292 291 290 290 290 290 289 290 290 290 290 290 290 289 288 288 288 288 288 287 287 287 287 286 285 285 284 285 285 285 285 285
301 299 298 297 295 293 292 291 291 291 290 290 290 290 290 290 289 289 289 289 289 289 288 288 288 288 288 288 287 287 287 287 286 286 285 285 284 284 283 283 283 283
299 297 296 294 292 291 291 290 290 290 289 289 289 289 289 289 289 289 289 288 288 288 287 287 288 288 288 290 290 288 287 287 286 286 286 285 284 283 282 282 282 283
297 295 293 292 291 290 290 289 289 289 289 288 288 288 288 288 288 288 288 288 288 287 287 287 288 288 290 292 292 292 288 287 287 286 285 285 285 284 283 282 282 282
294 292 291 291 290 289 289 289 289 288 288 288 288 288 287 287 287 288 288 288 288 287 287 288 288 289 292 292 293 293 290 287 287 286 286 285 285 285 284 283 282 282
292 291 291 290 290 289 289 288 288 288 288 287 287 288 287 287 287 287 287 287 287 287 287 287 287 290 292 292 292 292 292 289 287 286 286 285 285 285 284 284 283 283
291 291 290 290 289 289 288 288 287 288 288 288 288 287 286 286 286 286 287 286 287 287 287 287 286 289 292 292 292 292 292 290 286 286 286 285 285 285 284 284 284 284
291 290 290 289 289 288 288 288 288 288 287 287 287 286 286 287 286 286 286 286 286 287 287 286 286 290 291 292 292 292 292 290 285 286 285 285 284 284 284 284 284 284
290 290 290 289 288 288 288 287 288 288 287 287 287 286 287 287 286 286 286 285 286 286 286 286 286 290 291 292 292 292 292 286 285 285 284 284 283 283 283 284 284 284
290 290 289 288 288 287 287 287 287 287 287 287 286 286 286 286 286 286 286 286 285 285 285 286 285 289 291 292 292 292 290 285 285 284 284 283 283 283 283 283 283 283
290 290 289 288 288 288 288 288 288 288 287 287 286 286 285 286 286 286 286 286 285 285 286 285 285 288 291 291 292 292 288 285 285 284 284 283 283 283 283 283 283 285
290 290 289 288 288 288 288 288 287 287 287 286 287 287 286 286 286 286 285 285 285 285 286 286 285 287 291 291 291 291 288 286 285 284 283 283 283 282 282 282 282 284
290 289 289 289 288 288 288 288 288 287 286 286 286 287 286 285 285 285 284 284 284 284 285 285 285 286 289 291 291 291 289 286 286 285 284 284 283 283 281 281 282 283
Wind_Speed
15 13 14 13 13 13 14 14 13 15 14 14 14 13 15 14 13 14 14 11 10 11 11 11 11 11 9 9 10 9 9 10 9 9 9 9 8 8 9 8 7 8
19 16 12 11 11 11 12 14 14 14 14 14 14 14 13 13 14 14 13 12 11 11 11 10 11 12 11 9 9 9 8 9 10 7 9 10 9 8 9 9 8 6
17 16 16 16 15 15 15 13 13 13 13 13 12 12 13 13 14 13 13 13 13 12 12 11 11 11 11 10 10 9 9 9 10 8 9 11 8 10 8 8 7 8
19 18 17 17 15 15 13 13 12 12 11 12 13 12 12 12 14 15 14 14 13 13 12 12 12 11 10 10 10 9 10 10 9 9 9 8 8 9 8 8 7 7
20 19 16 14 14 14 13 14 15 14 14 14 12 12 12 12 13 14 14 14 14 13 12 13 11 11 10 10 10 10 9 9 7 9 10 9 8 9 8 9 8 8
15 15 15 15 14 15 15 16 15 15 14 13 15 12 13 14 14 15 14 15 13 14 13 12 12 10 10 10 10 10 9 9 8 9 9 10 8 7 8 8 9 8
18 17 18 16 15 15 15 15 14 14 14 14 11 13 13 13 14 15 15 15 14 13 14 13 12 11 10 10 10 9 9 9 8 9 10 8 8 8 6 9 9 9
18 16 16 15 16 16 16 15 14 14 14 12 14 13 13 14 14 12 12 13 13 13 13 12 12 12 10 10 11 10 10 7 9 9 9 8 8 9 8 8 9 10
17 16 16 17 17 16 17 16 15 14 13 15 13 12 12 14 14 13 13 12 12 12 12 12 13 12 11 11 11 11 11 8 8 10 10 10 10 10 10 8 9 10
16 16 17 17 18 16 18 17 15 14 13 15 14 12 14 12 13 14 12 13 13 12 12 13 13 12 12 12 13 12 11 11 9 9 9 9 10 9 10 10 11 10
17 16 17 19 19 17 18 17 15 15 14 15 14 14 14 12 12 13 14 13 14 14 14 14 14 13 13 12 11 11 11 11 10 9 9 9 9 9 9 10 10 11
18 17 18 19 19 18 18 17 16 15 15 13 15 15 14 13 14 12 14 15 13 13 13 13 12 12 13 13 12 11 11 11 10 9 9 8 8 8 8 8 9 10
19 19 18 18 18 17 15 14 15 15 15 15 14 16 15 14 13 14 12 13 13 12 13 13 13 12 12 12 12 11 12 11 11 10 9 8 8 8 8 8 9 9
18 17 16 17 14 13 13 14 14 14 15 13 13 15 16 15 15 15 13 12 13 12 12 11 12 11 11 11 11 12 12 12 12 12 11 9 8 8 8 8 9 9
15 14 14 13 12 11 11 12 13 13 12 12 13 13 12 13 13 12 13 12 11 12 11 10 12 12 11 12 12 12 11 13 13 13 12 11 10 9 8 8 7 7
15 13 13 13 12 13 13 13 13 12 12 12 12 12 12 12 12 12 13 13 13 12 11 11 11 10 13 19 16 14 13 11 11 12 13 12 12 11 9 8 8 7
13 14 13 14 14 13 12 13 13 12 12 13 12 12 13 12 13 14 13 13 14 13 13 12 10 10 18 16 13 15 14 13 14 12 11 12 13 13 13 12 9 8
14 13 14 15 13 14 14 13 13 13 14 14 14 14 12 12 13 14 13 12 12 12 12 12 11 14 14 13 13 14 15 12 11 12 12 12 13 13 11 11 11 10
12 14 15 15 16 15 14 13 14 14 14 14 16 14 13 15 14 13 13 13 13 14 13 12 10 15 14 21 20 16 13 14 10 11 12 12 12 13 13 13 11 11
14 15 15 16 15 15 14 15 15 16 15 13 12 11 13 13 13 15 13 14 14 15 14 12 11 15 19 21 20 16 13 12 10 12 11 11 12 13 12 13 13 13
14 15 15 14 15 15 15 16 17 14 14 12 12 14 15 16 16 16 15 14 13 12 12 12 11 17 20 21 21 17 15 11 9 9 9 9 9 9 11 12 12 12
16 16 16 15 15 15 16 17 17 17 16 13 12 11 9 8 7 9 12 13 13 14 13 13 11 18 21 21 21 17 17 11 9 10 10 10 10 10 9 10 10 12
16 17 17 16 16 17 17 18 17 16 14 12 14 13 13 13 14 14 13 14 15 14 14 13 12 18 21 22 21 19 15 10 10 9 9 10 11 10 11 11 12 13
16 17 18 18 17 19 19 17 16 14 16 16 18 16 15 14 13 12 12 13 15 16 16 15 13 18 23 23 22 23 16 14 12 11 11 11 9 9 9 10 12 17
16 17 18 20 21 20 18 18 18 17 14 13 13 14 16 14 13 13 12 11 13 15 17 17 14 18 24 24 24 24 17 12 11 10 11 10 10 10 8 8 9 12
13 18 19 20 21 18 16 16 14 12 13 14 13 12 12 12 12 12 15 13 12 13 13 13 14 15 20 25 25 25 21 13 11 12 12 12 10 10 10 8 9 9
Wind_Direction
197 195 192 188 186 183 179 180 181 179 181 179 177 183 181 181 177 180 182 183 185 180 178 181 178 173 181 176 176 175 180 178 174 173 174 174 179 168 175 173 170 169
199 199 193 187 183 180 182 183 179 180 181 183 182 177 183 176 177 178 179 180 180 184 182 182 184 173 173 178 179 177 175 174 177 172 170 176 179 174 179 176 174 165
191 197 198 195 189 183 180 180 178 180 179 181 179 178 175 176 174 179 179 179 180 184 184 183 186 175 173 179 179 179 177 177 179 176 172 182 172 179 181 172 172 170
192 195 196 197 193 187 181 177 178 177 174 173 180 176 173 175 174 177 180 180 181 182 184 184 186 176 173 180 178 182 182 183 180 169 175 175 176 172 173 168 166 168
188 190 193 191 190 185 180 181 180 178 177 178 171 172 170 170 174 178 179 182 181 182 182 185 183 177 174 178 179 180 182 182 175 171 172 177 179 170 169 163 167 169
186 189 189 190 187 180 181 184 183 178 177 173 178 171 174 173 177 179 180 180 182 180 181 181 178 178 176 177 178 183 179 181 177 174 174 177 176 174 158 164 158 161
185 186 187 185 183 184 184 186 182 179 180 179 164 175 172 175 179 181 180 182 180 179 179 178 174 175 178 174 179 180 182 179 170 177 176 177 164 169 161 157 159 157
185 185 183 182 183 184 186 184 182 182 179 167 176 178 171 177 180 179 179 177 178 178 178 175 172 175 175 174 180 177 181 178 172 177 176 172 169 168 165 163 155 155
182 184 182 182 184 188 190 186 184 181 173 174 178 172 176 175 176 175 176 176 177 178 175 173 175 177 176 177 181 177 178 179 177 176 176 174 177 174 168 161 155 159
182 183 184 186 188 189 191 188 182 179 175 176 174 168 172 176 170 170 170 174 177 178 177 175 177 177 177 181 180 178 176 176 176 180 179 180 180 173 164 165 164 156
185 182 186 188 190 190 191 187 181 176 175 174 169 170 172 166 171 168 170 174 179 180 177 178 181 178 177 179 178 176 173 171 174 179 180 180 178 173 169 165 164 165
189 187 190 190 189 188 187 183 178 175 173 174 170 170 169 169 168 173 174 178 179 178 176 178 177 179 180 179 176 172 170 169 169 173 177 173 171 167 166 169 165 162
192 193 191 192 192 190 184 179 177 174 172 173 173 167 167 169 170 170 175 174 177 174 177 176 177 179 179 178 175 172 170 166 165 166 168 170 172 168 167 168 167 166
196 192 192 194 194 188 182 179 174 173 174 168 165 166 169 170 171 171 171 171 174 177 176 171 171 175 177 176 174 172 169 169 167 166 166 168 167 167 166 171 173 172
191 190 190 188 186 180 175 175 175 173 170 165 167 168 167 167 165 164 162 168 169 170 168 170 174 179 179 175 172 173 171 169 169 167 166 166 166 167 167 164 168 171
189 186 183 179 177 177 177 175 172 169 164 163 168 166 164 163 162 165 166 167 167 168 168 172 181 181 183 180 176 172 171 170 169 171 168 167 166 166 167 168 169 170
184 184 176 177 178 173 172 170 167 165 163 163 163 162 162 165 163 165 170 169 169 169 172 178 182 184 183 180 174 170 172 170 171 172 171 168 170 170 173 171 169 169
185 177 177 177 171 175 171 171 168 165 165 165 164 164 164 162 168 172 169 166 167 170 176 181 185 184 177 173 170 164 170 172 171 170 172 175 176 175 171 167 166 165
177 178 180 175 177 171 169 166 167 167 167 167 172 171 162 167 171 167 170 170 170 173 180 181 184 181 172 182 180 171 160 166 173 172 174 178 177 175 171 169 165 165
182 180 181 180 173 169 166 167 168 174 174 173 166 160 165 166 167 171 171 174 177 178 178 176 176 184 179 181 180 171 160 162 174 173 178 179 178 176 172 170 170 167
187 183 183 176 174 171 167 170 173 170 169 168 166 170 172 174 174 176 177 176 176 174 173 175 181 175 178 179 179 171 162 158 169 172 174 178 179 179 176 171 169 169
191 185 180 176 172 171 172 173 174 173 170 168 165 169 171 162 167 167 169 176 177 175 173 176 173 173 175 177 176 163 159 158 169 173 175 175 177 179 177 174 171 170
193 185 177 174 172 173 177 176 174 173 169 165 165 169 170 175 175 179 179 176 174 177 178 176 171 176 175 175 174 163 159 168 170 175 176 179 184 181 179 177 179 177
188 182 177 174 175 180 180 178 176 174 174 170 170 169 174 178 174 176 178 178 177 180 181 174 175 177 175 175 172 171 169 171 174 175 180 182 183 186 182 183 186 183
182 180 181 177 179 181 178 175 176 176 172 171 175 175 176 170 171 172 172 177 182 183 183 177 171 176 176 175 175 174 166 172 169 175 176 185 181 184 187 184 184 184
189 186 182 181 180 174 175 176 169 161 168 174 172 170 168 170 171 172 171 177 178 182 185 184 174 175 179 177 177 176 172 166 173 171 184 185 185 179 178 190 188 184